Weather Roundup
Issued by NWS Chicago, IL

Home | Current Version | Previous Version | Text Only | Print | Product List | Glossary On
Versions: 1 2 3 4 5 6 7 8 9 10 11 12 13 14 15 16 17 18 19 20 21 22 23 24 25 26 27 28 29 30 31 32 33 34 35 36 37 38 39 40 41 42 43 44 45 46 47 48 49 50
000
NZUS59 KLOT 040310
HRRLOT

CHICAGO AREA WEATHER ROUNDUP
NATIONAL WEATHER SERVICE CHICAGO/ROMEOVILLE IL
900 PM CST TUE MAR 03 2015

NOTE: "FAIR" INDICATES FEW OR NO CLOUDS BELOW 12,000 FEET WITH NO
SIGNIFICANT WEATHER AND/OR OBSTRUCTIONS TO VISIBILITY.

* THESE STATIONS ARE NOT UNDER NWS QUALITY CONTROL. THEY ALSO MAY NOT
  REPORT WEATHER SUCH AS PRECIPITATION OR FOG.

ILZ005-006-012>014-019>023-040400-
NORTHEAST ILLINOIS

CITY           SKY/WX    TMP DP  RH WIND       PRES   REMARKS
OHARE          CLOUDY    32  25  75 W15       29.83R WCI  22
MIDWAY         CLOUDY    35  26  69 W17G24    29.84R WCI  25
AURORA         CLOUDY    33  25  72 W15       29.86R WCI  23
LANSING*       CLOUDY    34  29  82 W12G18    29.84R WCI  25
JOLIET*        CLOUDY    33  28  84 W9        29.87R WCI  25
WAUKEGAN       CLOUDY    31  23  72 W5        29.81R WCI  26
DUPAGE AIRPORT CLOUDY    31  24  75 W13       29.85R WCI  21
WHEELING       CLOUDY    32  25  75 W7        29.84R WCI  26
KANKAKEE*      CLOUDY    33  31  92 W13       29.87R WCI  24
MORRIS*        CLOUDY    33  30  90 W16       29.87R WCI  22
LEWIS AIRPORT* CLOUDY    33  28  83 W15       29.86R WCI  22
NORTHERLY IS     N/A     34  26  73 W5          N/A  WCI  30
$$

WIZ051-052-058>065-066-070>072-040400-
SOUTHEAST WISCONSIN

CITY           SKY/WX    TMP DP  RH WIND       PRES   REMARKS
MILWAUKEE      CLOUDY    30  21  69 W7        29.79R WCI  23
KENOSHA*       CLOUDY    30  22  72 W9        29.80R WCI  22
RACINE*        CLOUDY    30  21  69 W6        29.81R WCI  24
BURLINGTON     CLOUDY    25  21  84 SW6       29.80R WCI  18
WAUKESHA       CLOUDY    28  23  80 W10       29.78S WCI  19
WEST BEND      CLOUDY    30  21  69 W10G17    29.76R WCI  21
$$

INZ001>003-010>013-019-020-040400-
NORTHWEST INDIANA

CITY           SKY/WX    TMP DP  RH WIND       PRES   REMARKS
GARY*          CLOUDY    36  27  70 W9        29.85R
MICHIGAN CITY* NOT AVBL
RENSSELAER*    NOT AVBL
VALPARAISO     CLOUDY    33  29  85 W14       29.82R WCI  23
$$

LMZ740>746-040400-
SOUTHERN LAKE MICHIGAN

STATION/POSITION TIME  SKY/WX   TEMP WIND        PRES    VSBY
                                AIR  DIR/SP/G
                 (UTC)          (F)  (DEG/KT/KT) (MB)    (MI)
HARRISON CRIB    0300            33  280/ 16/ 20   N/A
BURNHAM HARBOR   0300            34  250/  8/ 13   N/A
CALUMET HARBOR   0300            34  260/  8/ 14 1009.1R
BURNS HARBOR     NOT AVBL
MICHIGAN CITY    0300            33  240/ 11/ 13   N/A
$$

ABBREVIATIONS USED IN REMARKS
   TC - TEMPERATURE IN CELSIUS
  WCI - WIND CHILL INDEX
   HX - HEAT INDEX
  VSB - VISIBILITY
$$


USA.gov is the U.S. government's official web portal to all federal, state and local government web resources and services.